This is the latest recevied weather packets stored in our database for station/object KF6RAL-6. If no packets are shown the sender has not sent any weather packets the latest 10 day(s).
| Time | Temp. | Humidity | Pressure | Rain* | Wind** | Luminosity | Snow |
|---|---|---|---|---|---|---|---|
| 1788546040 | 27.78° C | 18% | 1011.7 hPa | 0 mm | - | - | - |
| 1788545716 | 28.89° C | 19% | 1011.5 hPa | 0 mm | - | - | - |
| 1788545619 | 28.89° C | 19% | 1011.5 hPa | 0 mm | - | - | - |
| 1788545198 | 28.33° C | 19% | 1011.7 hPa | 0 mm | - | - | - |
| 1788544777 | 28.33° C | 18% | 1011.7 hPa | 0 mm | - | - | - |
| 1788544396 | 28.33° C | 18% | 1011.8 hPa | 0 mm | - | - | - |
| 1788544356 | 28.33° C | 18% | 1011.8 hPa | 0 mm | - | - | - |
| 1788543936 | 27.78° C | 19% | 1011.9 hPa | 0 mm | - | - | - |
| 1788543514 | 27.22° C | 19% | 1011.3 hPa | 0 mm | - | - | - |
| 1788543093 | 26.67° C | 19% | 1011.2 hPa | 0 mm | - | - | - |
| 1788542672 | 26.67° C | 18% | 1011.3 hPa | 0 mm | - | - | - |
| 1788542251 | 26.67° C | 18% | 1011.3 hPa | 0 mm | - | - | - |
| 1788541410 | 26.67° C | 20% | 1011.2 hPa | 0 mm | - | - | - |
| 1788540988 | 26.67° C | 17% | 1011.4 hPa | 0 mm | - | - | - |
| 1788540567 | 26.67° C | 17% | 1011.4 hPa | 0 mm | - | - | - |
| 1788540147 | 26.67° C | 18% | 1011.5 hPa | 0 mm | - | - | - |
| 1788539725 | 26.67° C | 18% | 1011.4 hPa | 0 mm | - | - | - |
| 1788539304 | 26.11° C | 17% | 1011.4 hPa | 0 mm | - | - | - |
| 1788538884 | 26.67° C | 18% | 1011.3 hPa | 0 mm | - | - | - |
| 1788538462 | 26.11° C | 16% | 1011.5 hPa | 0 mm | - | - | - |
| 1788538041 | 26.11° C | 16% | 1011.2 hPa | 0 mm | - | - | - |
| 1788537620 | 26.11° C | 17% | 1011.3 hPa | 0 mm | - | - | - |
| 1788537199 | 26.11° C | 16% | 1011.3 hPa | 0 mm | - | - | - |
| 1788536777 | 26.11° C | 18% | 1011 hPa | 0 mm | - | - | - |
| 1788536357 | 26.11° C | 17% | 1011.2 hPa | 0 mm | - | - | - |
* Rain latest hour (hover to see other rain measurements)
** Current wind speed in m/s (hover to see current wind gust speed)